Calgary Springbank, Alberta

12:40 PM MDT on August 29, 2016 (GMT -0600)
Springbank

Weather History for CYBW - October, 2011

Change the Weather History Date:

Tuesday, October 11, 2011

  Actual Average Record
Temperature  
Mean Temperature 44 °F -  
Max Temperature 59 °F 43 °F 60 °F (2004)
Min Temperature 30 °F 22 °F 14 °F (2002)
Degree Days  
Heating Degree Days 20    
Moisture  
Dew Point 32 °F    
Average Humidity 60    
Maximum Humidity 87    
Minimum Humidity 31    
Precipitation  
Precipitation 0.00 in - - ()
Sea Level Pressure  
Sea Level Pressure 29.61 in    
Wind  
Wind Speed 6 mph ()    
Max Wind Speed 18 mph    
Max Gust Speed 24 mph    
Visibility 15.7 miles    
Events      
Averages and records for this station are not official NWS values.
T = Trace of Precipitation, MM = Missing Value Source: Averaged Metar Reports

Daily Weather History Graph

Daily Weather History Graph

Search for Another Location

Airport or City:

Trip Planner

Search our weather history database for the weather conditions in past years. The results will help you decide how hot, cold, wet, or windy it might be!

Date:

Astronomy

Oct. 11, 2011 Rise Set
Actual Time 7:54 AM MDT 6:53 PM MDT
Civil Twilight 7:20 AM MDT 7:26 PM MDT
Nautical Twilight 6:42 AM MDT 8:04 PM MDT
Astronomical Twilight 6:03 AM MDT 8:43 PM MDT
Moon 6:19 PM MDT (10/11) 7:40 AM MDT (10/11)
Length of Visible Light 12h 05m
Length of Day
10h 59m
Full, 100% of the Moon is Illuminated
Oct 11
Full
Oct 11
Full
Oct 19
Last Quarter
Oct 26
New
Nov 2
First Quarter

Hourly Weather History & Observations

Time (MDT) Temp. Windchill Dew Point Humidity Pressure Visibility Wind Dir Wind Speed Gust Speed Precip Events Conditions
5:00 AM 33.8 °F - 28.4 °F 81% 29.54 in 15.0 mi Calm Calm - N/A   Mostly Cloudy
6:00 AM 33 °F - 27 °F 72% 29.54 in 28 mi NW 2.3 mph - -   Mostly Cloudy
6:00 AM 32.0 °F 28.7 °F 26.6 °F 80% 29.54 in 15.0 mi North 3.5 mph - N/A   Mostly Cloudy
7:00 AM 32.0 °F 26.4 °F 28.4 °F 87% 29.54 in 15.0 mi WNW 5.8 mph - N/A   Mostly Cloudy
8:00 AM 35.6 °F - 30.2 °F 81% 29.54 in 30.0 mi Calm Calm - N/A   Mostly Cloudy
9:00 AM 37.4 °F 34.9 °F 32.0 °F 81% 29.55 in 30.0 mi NNW 3.5 mph - N/A   Mostly Cloudy
10:00 AM 44.6 °F 42.2 °F 37.4 °F 76% 29.56 in 30.0 mi NW 4.6 mph - N/A   Mostly Cloudy
11:00 AM 55.4 °F - 35.6 °F 47% 29.57 in 30.0 mi West 16.1 mph - N/A   Mostly Cloudy
12:00 PM 57 °F - 35 °F 31% 29.55 in 28 mi WNW 12.7 mph - -   Scattered Clouds
12:00 PM 57.2 °F - 35.6 °F 44% 29.55 in 30.0 mi WNW 18.4 mph - N/A   Scattered Clouds
1:00 PM 55.4 °F - 33.8 °F 44% 29.57 in 30.0 mi WNW 17.3 mph 24.2 mph N/A   Scattered Clouds
2:00 PM 53.6 °F - 33.8 °F 47% 29.58 in 30.0 mi WNW 10.4 mph - N/A   Mostly Cloudy
3:00 PM 57.2 °F - 33.8 °F 41% 29.60 in 30.0 mi West 12.7 mph 21.9 mph N/A   Mostly Cloudy
5:00 PM 51.8 °F - 32.0 °F 47% 29.63 in 30.0 mi West 8.1 mph - N/A   Scattered Clouds
6:00 PM 47 °F - 32 °F 45% 29.70 in 28 mi WNW 6.9 mph - -   Scattered Clouds
7:00 PM 48.2 °F - 32.0 °F 54% 29.72 in 20.0 mi West 9.2 mph - N/A   Mostly Cloudy
8:00 PM 50.0 °F - 33.8 °F 54% 29.75 in 15.0 mi West 12.7 mph 18.4 mph N/A   Mostly Cloudy
9:00 PM 48.2 °F - 33.8 °F 58% 29.77 in 15.0 mi West 5.8 mph - N/A   Mostly Cloudy
10:00 PM 46.4 °F 45.2 °F 33.8 °F 62% 29.78 in 15.0 mi WNW 3.5 mph - N/A   Mostly Cloudy